This demonstration page uses our WeatherBlox Daily Observations layout. Learn more.

Left ArrowRight Arrow

39.95238, -75.16362

Hourly Observations for August 26, 2022

Temp ( °F °C ) Dew Point ( °F °C ) Humidity (%) Winds ( mph kmh ) Pressure ( in mb ) Visibility ( mi km ) Precip ( " mm )
12:54 am 00:54 Mostly Cloudy 79 26.1 70 21.1 74 74 SW 8 13 30.02 1017 10 16 0.00 0.00
1:54 am 01:54 Mostly Cloudy 79 26.1 70 21.1 74 74 SSW 7 11 30.00 1016 10 16 0.00 0.00
2:54 am 02:54 Mostly Clear 78 25.6 70 21.1 76 76 SSW 7 11 29.99 1016 10 16 0.00 0.00
3:54 am 03:54 Mostly Clear 77 25 70 21.1 79 79 SSW 7 11 29.98 1015 10 16 0.00 0.00
4:54 am 04:54 Partly Cloudy 76 24.4 70 21.1 82 82 SSW 7 11 29.97 1015 10 16 0.00 0.00
5:54 am 05:54 Mostly Cloudy 76 24.4 70 21.1 82 82 SSW 9 15 29.96 1015 10 16 0.00 0.00
6:54 am 06:54 Mostly Cloudy 76 24.4 71 21.7 85 85 SSW 6 9 29.96 1015 9 14 0.00 0.00
7:54 am 07:54 Partly Cloudy 77 25 71 21.7 82 82 SSW 5 7 29.96 1015 9 14 0.00 0.00
8:54 am 08:54 Partly Cloudy 79 26.1 72 22.2 79 79 WSW 9 15 29.96 1015 9 14 0.00 0.00
9:54 am 09:54 Mostly Sunny 82 27.8 72 22.2 72 72 SW 9 15 29.96 1015 10 16 0.00 0.00
10:54 am 10:54 Mostly Sunny 85 29.4 72 22.2 65 65 WSW 9 15 29.96 1015 10 16 0.00 0.00
11:54 am 11:54 Partly Cloudy 87 30.6 71 21.7 59 59 WSW 8 13 29.95 1014 10 16 0.00 0.00
12:54 pm 12:54 Mostly Cloudy 90 32.2 66 18.9 45 45 WSW 12 19 29.92 1013 10 16 0.00 0.00
1:54 pm 13:54 Partly Cloudy 88 31.1 67 19.4 50 50 S 12 19 29.92 1013 10 16 0.00 0.00
2:54 pm 14:54 Partly Cloudy 91 32.8 64 17.8 41 41 SW 15 24 29.90 1012 10 16 0.00 0.00
3:54 pm 15:54 Mostly Cloudy 93 33.9 64 17.8 39 39 WSW 16 26 29.88 1012 10 16 0.00 0.00
4:54 pm 16:54 Partly Cloudy 93 33.9 62 16.7 36 36 WSW 17 28 29.87 1012 10 16 0.00 0.00
5:54 pm 17:54 Partly Cloudy 91 32.8 63 17.2 39 39 SW 14 22 29.87 1012 10 16 0.00 0.00
6:54 pm 18:54 Partly Cloudy 90 32.2 65 18.3 44 44 WSW 15 24 29.88 1012 10 16 0.00 0.00
7:54 pm 19:54 Mostly Cloudy 88 31.1 65 18.3 47 47 WSW 9 15 29.90 1013 10 16 0.00 0.00
8:54 pm 20:54 Partly Cloudy 85 29.4 67 19.4 55 55 SW 9 15 29.91 1013 10 16 0.00 0.00
9:54 pm 21:54 Partly Cloudy 84 28.9 67 19.4 57 57 SW 8 13 29.93 1014 10 16 0.00 0.00
10:54 pm 22:54 Partly Cloudy 83 28.3 67 19.4 59 59 SW 8 13 29.94 1014 10 16 0.00 0.00
11:54 pm 23:54 Partly Cloudy 81 27.2 68 20 65 65 SSW 6 9 29.94 1014 10 16 0.00 0.00

Powered by AerisWeather